Year,Month,Day,Hour,Minute,Value (Times are PST for temperature in C)
2010,10,02,00,00,16.20
2010,10,02,00,01,16.20
2010,10,02,00,02,16.20
2010,10,02,00,03,16.20
2010,10,02,00,04,16.20
2010,10,02,00,05,16.30
2010,10,02,00,06,16.30
2010,10,02,00,07,16.30
2010,10,02,00,08,16.30
2010,10,02,00,09,16.30
2010,10,02,00,10,16.30
2010,10,02,00,11,16.30
2010,10,02,00,12,16.30
2010,10,02,00,13,16.30
2010,10,02,00,14,16.30
2010,10,02,00,15,16.30
2010,10,02,00,16,16.30
2010,10,02,00,17,16.30
2010,10,02,00,18,16.30
2010,10,02,00,19,16.30
2010,10,02,00,20,16.20
2010,10,02,00,21,16.20
2010,10,02,00,22,16.20
2010,10,02,00,23,16.20
2010,10,02,00,24,16.20
2010,10,02,00,25,16.30
2010,10,02,00,26,16.30
2010,10,02,00,27,16.30
2010,10,02,00,28,16.30
2010,10,02,00,29,16.30
2010,10,02,00,30,16.30
2010,10,02,00,31,16.30
2010,10,02,00,32,16.30
2010,10,02,00,33,16.30
2010,10,02,00,34,16.30
2010,10,02,00,35,16.30
2010,10,02,00,36,16.30
2010,10,02,00,37,16.30
2010,10,02,00,38,16.30
2010,10,02,00,39,16.30
2010,10,02,00,40,16.20
2010,10,02,00,41,16.20
2010,10,02,00,42,16.20
2010,10,02,00,43,16.20
2010,10,02,00,44,16.20
2010,10,02,00,45,16.20
2010,10,02,00,46,16.20
2010,10,02,00,47,16.20
2010,10,02,00,48,16.20
2010,10,02,00,49,16.30
2010,10,02,00,50,16.30
2010,10,02,00,51,16.30
2010,10,02,00,52,16.30
2010,10,02,00,53,16.30
2010,10,02,00,54,16.30
2010,10,02,00,55,16.30
2010,10,02,00,56,16.20
2010,10,02,00,57,16.20
2010,10,02,00,58,16.20
2010,10,02,00,59,16.20
2010,10,02,01,00,16.20
2010,10,02,01,01,16.20
2010,10,02,01,02,16.20
2010,10,02,01,03,16.20
2010,10,02,01,04,16.20
2010,10,02,01,05,16.20
2010,10,02,01,06,16.20
2010,10,02,01,07,16.20
2010,10,02,01,08,16.20
2010,10,02,01,09,16.20
2010,10,02,01,10,16.20
2010,10,02,01,11,16.20
2010,10,02,01,12,16.20
2010,10,02,01,13,16.20
2010,10,02,01,14,16.20
2010,10,02,01,15,16.20
2010,10,02,01,16,16.20
2010,10,02,01,17,16.20
2010,10,02,01,18,16.20
2010,10,02,01,19,16.20
2010,10,02,01,20,16.20
2010,10,02,01,21,16.20
2010,10,02,01,22,16.20
2010,10,02,01,23,16.20
2010,10,02,01,24,16.20
2010,10,02,01,25,16.20
2010,10,02,01,26,16.20
2010,10,02,01,27,16.20
2010,10,02,01,28,16.20
2010,10,02,01,29,16.20
2010,10,02,01,30,16.10
2010,10,02,01,31,16.10
2010,10,02,01,32,16.10
2010,10,02,01,33,16.10
2010,10,02,01,34,16.10
2010,10,02,01,35,16.10
2010,10,02,01,36,16.10
2010,10,02,01,37,16.10
2010,10,02,01,38,16.10
2010,10,02,01,39,16.10
2010,10,02,01,40,16.10
2010,10,02,01,41,16.10
2010,10,02,01,42,16.10
2010,10,02,01,43,16.10
2010,10,02,01,44,16.10
2010,10,02,01,45,16.10
2010,10,02,01,46,16.10
2010,10,02,01,47,16.10
2010,10,02,01,48,16.10
2010,10,02,01,49,16.10
2010,10,02,01,50,16.10
2010,10,02,01,51,16.10
2010,10,02,01,52,16.00
2010,10,02,01,53,16.00
2010,10,02,01,54,16.00
2010,10,02,01,55,16.00
2010,10,02,01,56,16.00
2010,10,02,01,57,16.00
2010,10,02,01,58,16.00
2010,10,02,01,59,16.00
2010,10,02,02,00,16.00
2010,10,02,02,01,16.00
2010,10,02,02,02,16.00
2010,10,02,02,03,16.00
2010,10,02,02,04,16.00
2010,10,02,02,05,16.00
2010,10,02,02,06,16.00
2010,10,02,02,07,16.00
2010,10,02,02,08,16.00
2010,10,02,02,09,16.00
2010,10,02,02,10,16.00
2010,10,02,02,11,16.00
2010,10,02,02,12,16.00
2010,10,02,02,13,16.00
2010,10,02,02,14,16.00
2010,10,02,02,15,15.90
2010,10,02,02,16,15.90
2010,10,02,02,17,15.90
2010,10,02,02,18,15.90
2010,10,02,02,19,15.90
2010,10,02,02,20,15.90
2010,10,02,02,21,15.90
2010,10,02,02,22,15.90
2010,10,02,02,23,15.90
2010,10,02,02,24,15.90
2010,10,02,02,25,15.90
2010,10,02,02,26,15.90
2010,10,02,02,27,15.90
2010,10,02,02,28,15.90
2010,10,02,02,29,15.90
2010,10,02,02,30,15.90
2010,10,02,02,31,15.90
2010,10,02,02,32,15.90
2010,10,02,02,33,15.80
2010,10,02,02,34,15.80
2010,10,02,02,35,15.80
2010,10,02,02,36,15.80
2010,10,02,02,37,15.80
2010,10,02,02,38,15.80
2010,10,02,02,39,15.80
2010,10,02,02,40,15.80
2010,10,02,02,41,15.80
2010,10,02,02,42,15.80
2010,10,02,02,43,15.80
2010,10,02,02,44,15.80
2010,10,02,02,45,15.80
2010,10,02,02,46,15.80
2010,10,02,02,47,15.80
2010,10,02,02,48,15.80
2010,10,02,02,49,15.80
2010,10,02,02,50,15.80
2010,10,02,02,51,15.80
2010,10,02,02,52,15.80
2010,10,02,02,53,15.80
2010,10,02,02,54,15.80
2010,10,02,02,55,15.80
2010,10,02,02,56,15.70
2010,10,02,02,57,15.70
2010,10,02,02,58,15.70
2010,10,02,02,59,15.70
2010,10,02,03,00,15.70
2010,10,02,03,01,15.70
2010,10,02,03,02,15.70
2010,10,02,03,03,15.70
2010,10,02,03,04,15.70
2010,10,02,03,05,15.70
2010,10,02,03,06,15.70
2010,10,02,03,07,15.70
2010,10,02,03,08,15.70
2010,10,02,03,09,15.70
2010,10,02,03,10,15.70
2010,10,02,03,11,15.70
2010,10,02,03,12,15.70
2010,10,02,03,13,15.70
2010,10,02,03,14,15.70
2010,10,02,03,15,15.70
2010,10,02,03,16,15.70
2010,10,02,03,17,15.60
2010,10,02,03,18,15.60
2010,10,02,03,19,15.60
2010,10,02,03,20,15.60
2010,10,02,03,21,15.60
2010,10,02,03,22,15.60
2010,10,02,03,23,15.60
2010,10,02,03,24,15.60
2010,10,02,03,25,15.60
2010,10,02,03,26,15.60
2010,10,02,03,27,15.60
2010,10,02,03,28,15.60
2010,10,02,03,29,15.50
2010,10,02,03,30,15.50
2010,10,02,03,31,15.50
2010,10,02,03,32,15.50
2010,10,02,03,33,15.50
2010,10,02,03,34,15.50
2010,10,02,03,35,15.40
2010,10,02,03,36,15.40
2010,10,02,03,37,15.40
2010,10,02,03,38,15.40
2010,10,02,03,39,15.40
2010,10,02,03,40,15.40
2010,10,02,03,41,15.40
2010,10,02,03,42,15.40
2010,10,02,03,43,15.40
2010,10,02,03,44,15.40
2010,10,02,03,45,15.40
2010,10,02,03,46,15.40
2010,10,02,03,47,15.40
2010,10,02,03,48,15.40
2010,10,02,03,49,15.40
2010,10,02,03,50,15.30
2010,10,02,03,51,15.30
2010,10,02,03,52,15.30
2010,10,02,03,53,15.30
2010,10,02,03,54,15.30
2010,10,02,03,55,15.30
2010,10,02,03,56,15.30
2010,10,02,03,57,15.30
2010,10,02,03,58,15.20
2010,10,02,03,59,15.20
2010,10,02,04,00,15.20
2010,10,02,04,01,15.20
2010,10,02,04,02,15.20
2010,10,02,04,03,15.10
2010,10,02,04,04,15.10
2010,10,02,04,05,15.10
2010,10,02,04,06,15.00
2010,10,02,04,07,15.00
2010,10,02,04,08,15.00
2010,10,02,04,09,15.00
2010,10,02,04,10,15.00
2010,10,02,04,11,15.00
2010,10,02,04,12,15.00
2010,10,02,04,13,15.00
2010,10,02,04,14,15.00
2010,10,02,04,15,15.00
2010,10,02,04,16,15.00
2010,10,02,04,17,15.00
2010,10,02,04,18,15.00
2010,10,02,04,19,15.00
2010,10,02,04,20,14.90
2010,10,02,04,21,14.90
2010,10,02,04,22,14.80
2010,10,02,04,23,14.80
2010,10,02,04,24,14.80
2010,10,02,04,25,14.80
2010,10,02,04,26,14.80
2010,10,02,04,27,14.70
2010,10,02,04,28,14.70
2010,10,02,04,29,14.70
2010,10,02,04,30,14.70
2010,10,02,04,31,14.70
2010,10,02,04,32,14.70
2010,10,02,04,33,14.70
2010,10,02,04,34,14.60
2010,10,02,04,35,14.60
2010,10,02,04,36,14.60
2010,10,02,04,37,14.60
2010,10,02,04,38,14.60
2010,10,02,04,39,14.50
2010,10,02,04,40,14.50
2010,10,02,04,41,14.50
2010,10,02,04,42,14.40
2010,10,02,04,43,14.40
2010,10,02,04,44,14.40
2010,10,02,04,45,14.40
2010,10,02,04,46,14.30
2010,10,02,04,47,14.30
2010,10,02,04,48,14.30
2010,10,02,04,49,14.30
2010,10,02,04,50,14.30
2010,10,02,04,51,14.30
2010,10,02,04,52,14.30
2010,10,02,04,53,14.30
2010,10,02,04,54,14.30
2010,10,02,04,55,14.30
2010,10,02,04,56,14.20
2010,10,02,04,57,14.20
2010,10,02,04,58,14.20
2010,10,02,04,59,14.20
2010,10,02,05,00,14.20
2010,10,02,05,01,14.20
2010,10,02,05,02,14.10
2010,10,02,05,03,14.10
2010,10,02,05,04,14.10
2010,10,02,05,05,14.10
2010,10,02,05,06,14.10
2010,10,02,05,07,14.10
2010,10,02,05,08,14.10
2010,10,02,05,09,14.00
2010,10,02,05,10,14.00
2010,10,02,05,11,14.00
2010,10,02,05,12,13.90
2010,10,02,05,13,13.90
2010,10,02,05,14,13.90
2010,10,02,05,15,13.90
2010,10,02,05,16,13.90
2010,10,02,05,17,13.90
2010,10,02,05,18,13.80
2010,10,02,05,19,13.80
2010,10,02,05,20,13.80
2010,10,02,05,21,13.70
2010,10,02,05,22,13.70
2010,10,02,05,23,13.60
2010,10,02,05,24,13.50
2010,10,02,05,25,13.40
2010,10,02,05,26,13.30
2010,10,02,05,27,13.30
2010,10,02,05,28,13.20
2010,10,02,05,29,13.10
2010,10,02,05,30,13.00
2010,10,02,05,31,12.90
2010,10,02,05,32,12.80
2010,10,02,05,33,12.70
2010,10,02,05,34,12.60
2010,10,02,05,35,12.60
2010,10,02,05,36,12.60
2010,10,02,05,37,12.50
2010,10,02,05,38,12.50
2010,10,02,05,39,12.40
2010,10,02,05,40,12.40
2010,10,02,05,41,12.30
2010,10,02,05,42,12.30
2010,10,02,05,43,12.30
2010,10,02,05,44,12.40
2010,10,02,05,45,12.40
2010,10,02,05,46,12.40
2010,10,02,05,47,12.40
2010,10,02,05,48,12.30
2010,10,02,05,49,12.30
2010,10,02,05,50,12.30
2010,10,02,05,51,12.30
2010,10,02,05,52,12.20
2010,10,02,05,53,12.20
2010,10,02,05,54,12.10
2010,10,02,05,55,12.10
2010,10,02,05,56,12.10
2010,10,02,05,57,12.10
2010,10,02,05,58,12.10
2010,10,02,05,59,12.20
2010,10,02,06,00,12.20
2010,10,02,06,01,12.20
2010,10,02,06,02,12.20
2010,10,02,06,03,12.20
2010,10,02,06,04,12.20
2010,10,02,06,05,12.10
2010,10,02,06,06,12.10
2010,10,02,06,07,12.00
2010,10,02,06,08,12.00
2010,10,02,06,09,11.90
2010,10,02,06,10,11.90
2010,10,02,06,11,11.90
2010,10,02,06,12,11.80
2010,10,02,06,13,11.80
2010,10,02,06,14,11.80
2010,10,02,06,15,11.70
2010,10,02,06,16,11.70
2010,10,02,06,17,11.70
2010,10,02,06,18,11.70
2010,10,02,06,19,11.70
2010,10,02,06,20,11.70
2010,10,02,06,21,11.70
2010,10,02,06,22,11.70
2010,10,02,06,23,11.70
2010,10,02,06,24,11.80
2010,10,02,06,25,11.80
2010,10,02,06,26,11.80
2010,10,02,06,27,11.80
2010,10,02,06,28,11.80
2010,10,02,06,29,11.80
2010,10,02,06,30,11.80
2010,10,02,06,31,11.80
2010,10,02,06,32,11.90
2010,10,02,06,33,11.90
2010,10,02,06,34,11.80
2010,10,02,06,35,11.80
2010,10,02,06,36,11.80
2010,10,02,06,37,11.80
2010,10,02,06,38,11.80
2010,10,02,06,39,11.80
2010,10,02,06,40,11.90
2010,10,02,06,41,11.90
2010,10,02,06,42,11.90
2010,10,02,06,43,11.90
2010,10,02,06,44,11.90
2010,10,02,06,45,11.90
2010,10,02,06,46,11.90
2010,10,02,06,47,11.90
2010,10,02,06,48,11.90
2010,10,02,06,49,11.90
2010,10,02,06,50,11.80
2010,10,02,06,51,11.80
2010,10,02,06,52,11.80
2010,10,02,06,53,11.80
2010,10,02,06,54,11.80
2010,10,02,06,55,11.80
2010,10,02,06,56,11.80
2010,10,02,06,57,11.80
2010,10,02,06,58,11.80
2010,10,02,06,59,11.80
2010,10,02,07,00,11.80
2010,10,02,07,01,11.80
2010,10,02,07,02,11.80
2010,10,02,07,03,11.80
2010,10,02,07,04,11.80
2010,10,02,07,05,11.80
2010,10,02,07,06,11.90
2010,10,02,07,07,11.90
2010,10,02,07,08,12.00
2010,10,02,07,09,12.10
2010,10,02,07,10,12.20
2010,10,02,07,11,12.20
2010,10,02,07,12,12.20
2010,10,02,07,13,12.20
2010,10,02,07,14,12.20
2010,10,02,07,15,12.20
2010,10,02,07,16,12.30
2010,10,02,07,17,12.30
2010,10,02,07,18,12.30
2010,10,02,07,19,12.30
2010,10,02,07,20,12.30
2010,10,02,07,21,12.30
2010,10,02,07,22,12.40
2010,10,02,07,23,12.30
2010,10,02,07,24,12.30
2010,10,02,07,25,12.30
2010,10,02,07,26,12.30
2010,10,02,07,27,12.20
2010,10,02,07,28,12.20
2010,10,02,07,29,12.20
2010,10,02,07,30,12.10
2010,10,02,07,31,12.10
2010,10,02,07,32,12.10
2010,10,02,07,33,12.00
2010,10,02,07,34,12.00
2010,10,02,07,35,11.90
2010,10,02,07,36,11.90
2010,10,02,07,37,11.80
2010,10,02,07,38,11.80
2010,10,02,07,39,11.80
2010,10,02,07,40,11.70
2010,10,02,07,41,11.70
2010,10,02,07,42,11.70
2010,10,02,07,43,11.70
2010,10,02,07,44,11.60
2010,10,02,07,45,11.60
2010,10,02,07,46,11.60
2010,10,02,07,47,11.60
2010,10,02,07,48,11.60
2010,10,02,07,49,11.50
2010,10,02,07,50,11.50
2010,10,02,07,51,11.50
2010,10,02,07,52,11.50
2010,10,02,07,53,11.50
2010,10,02,07,54,11.50
2010,10,02,07,55,11.40
2010,10,02,07,56,11.40
2010,10,02,07,57,11.40
2010,10,02,07,58,11.40
2010,10,02,07,59,11.40
2010,10,02,08,00,11.40
2010,10,02,08,01,11.40
2010,10,02,08,02,11.40
2010,10,02,08,03,11.50
2010,10,02,08,04,11.40
2010,10,02,08,05,11.50
2010,10,02,08,06,11.50
2010,10,02,08,07,11.50
2010,10,02,08,08,11.60
2010,10,02,08,09,11.60
2010,10,02,08,10,11.60
2010,10,02,08,11,11.60
2010,10,02,08,12,11.60
2010,10,02,08,13,11.70
2010,10,02,08,14,11.70
2010,10,02,08,15,11.70
2010,10,02,08,16,11.80
2010,10,02,08,17,11.80
2010,10,02,08,18,11.90
2010,10,02,08,19,11.90
2010,10,02,08,20,11.90
2010,10,02,08,21,12.00
2010,10,02,08,22,12.00
2010,10,02,08,23,12.00
2010,10,02,08,24,12.00
2010,10,02,08,25,12.10
2010,10,02,08,26,12.10
2010,10,02,08,27,12.10
2010,10,02,08,28,12.10
2010,10,02,08,29,12.10
2010,10,02,08,30,12.10
2010,10,02,08,31,12.10
2010,10,02,08,32,12.10
2010,10,02,08,33,12.10
2010,10,02,08,34,12.10
2010,10,02,08,35,12.00
2010,10,02,08,36,12.00
2010,10,02,08,37,12.00
2010,10,02,08,38,12.00
2010,10,02,08,39,11.90
2010,10,02,08,40,11.90
2010,10,02,08,41,11.90
2010,10,02,08,42,11.90
2010,10,02,08,43,11.90
2010,10,02,08,44,11.90
2010,10,02,08,45,11.90
2010,10,02,08,46,11.90
2010,10,02,08,47,11.90
2010,10,02,08,48,11.90
2010,10,02,08,49,12.00
2010,10,02,08,50,12.00
2010,10,02,08,51,12.00
2010,10,02,08,52,12.00
2010,10,02,08,53,12.10
2010,10,02,08,54,12.10
2010,10,02,08,55,12.10
2010,10,02,08,56,12.10
2010,10,02,08,57,12.20
2010,10,02,08,58,12.20
2010,10,02,08,59,12.20
2010,10,02,09,00,12.20
2010,10,02,09,01,12.30
2010,10,02,09,02,12.30
2010,10,02,09,03,12.40
2010,10,02,09,04,12.40
2010,10,02,09,05,12.40
2010,10,02,09,06,12.50
2010,10,02,09,07,12.50
2010,10,02,09,08,12.50
2010,10,02,09,09,12.60
2010,10,02,09,10,12.60
2010,10,02,09,11,12.70
2010,10,02,09,12,12.70
2010,10,02,09,13,12.80
2010,10,02,09,14,12.80
2010,10,02,09,15,12.80
2010,10,02,09,16,12.90
2010,10,02,09,17,13.00
2010,10,02,09,18,13.00
2010,10,02,09,19,13.10
2010,10,02,09,20,13.10
2010,10,02,09,21,13.20
2010,10,02,09,22,13.20
2010,10,02,09,23,13.30
2010,10,02,09,24,13.30
2010,10,02,09,25,13.30
2010,10,02,09,26,13.40
2010,10,02,09,27,13.40
2010,10,02,09,28,13.40
2010,10,02,09,29,13.50
2010,10,02,09,30,13.50
2010,10,02,09,31,13.60
2010,10,02,09,32,13.70
2010,10,02,09,33,13.70
2010,10,02,09,34,13.80
2010,10,02,09,35,13.80
2010,10,02,09,36,13.90
2010,10,02,09,37,13.90
2010,10,02,09,38,14.00
2010,10,02,09,39,14.00
2010,10,02,09,40,14.10
2010,10,02,09,41,14.20
2010,10,02,09,42,14.30
2010,10,02,09,43,14.40
2010,10,02,09,44,14.50
2010,10,02,09,45,14.60
2010,10,02,09,46,14.70
2010,10,02,09,47,14.80
2010,10,02,09,48,14.80
2010,10,02,09,49,15.00
2010,10,02,09,50,15.00
2010,10,02,09,51,15.00
2010,10,02,09,52,15.00
2010,10,02,09,53,15.10
2010,10,02,09,54,15.20
2010,10,02,09,55,15.30
2010,10,02,09,56,15.40
2010,10,02,09,57,15.50
2010,10,02,09,58,15.60
2010,10,02,09,59,15.60
2010,10,02,10,00,15.70
2010,10,02,10,01,15.60
2010,10,02,10,02,15.60
2010,10,02,10,03,15.60
2010,10,02,10,04,15.70
2010,10,02,10,05,15.70
2010,10,02,10,06,15.80
2010,10,02,10,07,15.80
2010,10,02,10,08,15.80
2010,10,02,10,09,15.90
2010,10,02,10,10,15.90
2010,10,02,10,11,15.90
2010,10,02,10,12,15.90
2010,10,02,10,13,15.70
2010,10,02,10,14,15.60
2010,10,02,10,15,15.60
2010,10,02,10,16,15.60
2010,10,02,10,17,15.70
2010,10,02,10,18,15.70
2010,10,02,10,19,15.70
2010,10,02,10,20,15.70
2010,10,02,10,21,15.60
2010,10,02,10,22,15.60
2010,10,02,10,23,15.70
2010,10,02,10,24,15.80
2010,10,02,10,25,15.70
2010,10,02,10,26,15.70
2010,10,02,10,27,15.70
2010,10,02,10,28,15.80
2010,10,02,10,29,15.90
2010,10,02,10,30,15.90
2010,10,02,10,31,16.00
2010,10,02,10,32,16.00
2010,10,02,10,33,16.00
2010,10,02,10,34,15.90
2010,10,02,10,35,15.90
2010,10,02,10,36,15.90
2010,10,02,10,37,16.00
2010,10,02,10,38,16.00
2010,10,02,10,39,16.10
2010,10,02,10,40,16.00
2010,10,02,10,41,16.00
2010,10,02,10,42,16.10
2010,10,02,10,43,16.10
2010,10,02,10,44,16.10
2010,10,02,10,45,16.10
2010,10,02,10,46,16.10
2010,10,02,10,47,16.10
2010,10,02,10,48,16.00
2010,10,02,10,49,16.10
2010,10,02,10,50,16.10
2010,10,02,10,51,16.10
2010,10,02,10,52,16.10
2010,10,02,10,53,16.10
2010,10,02,10,54,16.20
2010,10,02,10,55,16.10
2010,10,02,10,56,16.10
2010,10,02,10,57,16.10
2010,10,02,10,58,16.10
2010,10,02,10,59,16.10
2010,10,02,11,00,16.20
2010,10,02,11,01,16.30
2010,10,02,11,02,16.40
2010,10,02,11,03,16.40
2010,10,02,11,04,16.40
2010,10,02,11,05,16.50
2010,10,02,11,06,16.50
2010,10,02,11,07,16.60
2010,10,02,11,08,16.70
2010,10,02,11,09,16.70
2010,10,02,11,10,16.70
2010,10,02,11,11,16.70
2010,10,02,11,12,16.70
2010,10,02,11,13,16.60
2010,10,02,11,14,16.60
2010,10,02,11,15,16.60
2010,10,02,11,16,16.70
2010,10,02,11,17,16.70
2010,10,02,11,18,16.80
2010,10,02,11,19,16.90
2010,10,02,11,20,16.80
2010,10,02,11,21,16.90
2010,10,02,11,22,16.90
2010,10,02,11,23,16.90
2010,10,02,11,24,16.90
2010,10,02,11,25,16.80
2010,10,02,11,26,16.80
2010,10,02,11,27,16.70
2010,10,02,11,28,16.70
2010,10,02,11,29,16.70
2010,10,02,11,30,16.60
2010,10,02,11,31,16.60
2010,10,02,11,32,16.60
2010,10,02,11,33,16.60
2010,10,02,11,34,16.50
2010,10,02,11,35,16.50
2010,10,02,11,36,16.60
2010,10,02,11,37,16.70
2010,10,02,11,38,16.80
2010,10,02,11,39,16.80
2010,10,02,11,40,16.90
2010,10,02,11,41,17.00
2010,10,02,11,42,17.10
2010,10,02,11,43,17.10
2010,10,02,11,44,17.10
2010,10,02,11,45,17.10
2010,10,02,11,46,17.10
2010,10,02,11,47,17.00
2010,10,02,11,48,16.90
2010,10,02,11,49,16.90
2010,10,02,11,50,16.90
2010,10,02,11,51,16.90
2010,10,02,11,52,17.00
2010,10,02,11,53,17.10
2010,10,02,11,54,17.20
2010,10,02,11,55,17.20
2010,10,02,11,56,17.30
2010,10,02,11,57,17.30
2010,10,02,11,58,17.30
2010,10,02,11,59,17.40
2010,10,02,12,00,17.50
2010,10,02,12,01,17.50
2010,10,02,12,02,17.60
2010,10,02,12,03,17.70
2010,10,02,12,04,17.80
2010,10,02,12,05,17.80
2010,10,02,12,06,17.80
2010,10,02,12,07,17.90
2010,10,02,12,08,18.00
2010,10,02,12,09,18.00
2010,10,02,12,10,18.00
2010,10,02,12,11,18.10
2010,10,02,12,12,18.10
2010,10,02,12,13,18.00
2010,10,02,12,14,17.80
2010,10,02,12,15,17.80
2010,10,02,12,16,17.70
2010,10,02,12,17,17.70
2010,10,02,12,18,17.70
2010,10,02,12,19,17.70
2010,10,02,12,20,17.60
2010,10,02,12,21,17.60
2010,10,02,12,22,17.60
2010,10,02,12,23,17.60
2010,10,02,12,24,17.60
2010,10,02,12,25,17.60
2010,10,02,12,26,17.60
2010,10,02,12,27,17.60
2010,10,02,12,28,17.50
2010,10,02,12,29,17.50
2010,10,02,12,30,17.50
2010,10,02,12,31,17.60
2010,10,02,12,32,17.60
2010,10,02,12,33,17.60
2010,10,02,12,34,17.60
2010,10,02,12,35,17.60
2010,10,02,12,36,17.70
2010,10,02,12,37,17.70
2010,10,02,12,38,17.70
2010,10,02,12,39,17.70
2010,10,02,12,40,17.70
2010,10,02,12,41,17.70
2010,10,02,12,42,17.60
2010,10,02,12,43,17.50
2010,10,02,12,44,17.40
2010,10,02,12,45,17.40
2010,10,02,12,46,17.40
2010,10,02,12,47,17.50
2010,10,02,12,48,17.50
2010,10,02,12,49,17.50
2010,10,02,12,50,17.40
2010,10,02,12,51,17.40
2010,10,02,12,52,17.40
2010,10,02,12,53,17.40
2010,10,02,12,54,17.50
2010,10,02,12,55,17.60
2010,10,02,12,56,17.60
2010,10,02,12,57,17.50
2010,10,02,12,58,17.50
2010,10,02,12,59,17.50
2010,10,02,13,00,17.50
2010,10,02,13,01,17.50
2010,10,02,13,02,17.40
2010,10,02,13,03,17.40
2010,10,02,13,04,17.30
2010,10,02,13,05,17.20
2010,10,02,13,06,17.10
2010,10,02,13,07,17.00
2010,10,02,13,08,17.00
2010,10,02,13,09,16.90
2010,10,02,13,10,16.90
2010,10,02,13,11,17.00
2010,10,02,13,12,17.10
2010,10,02,13,13,17.20
2010,10,02,13,14,17.20
2010,10,02,13,15,17.30
2010,10,02,13,16,17.30
2010,10,02,13,17,17.20
2010,10,02,13,18,17.20
2010,10,02,13,19,17.20
2010,10,02,13,20,17.10
2010,10,02,13,21,17.00
2010,10,02,13,22,17.00
2010,10,02,13,23,16.90
2010,10,02,13,24,16.80
2010,10,02,13,25,16.80
2010,10,02,13,26,16.80
2010,10,02,13,27,16.80
2010,10,02,13,28,16.80
2010,10,02,13,29,16.80
2010,10,02,13,30,16.80
2010,10,02,13,31,16.80
2010,10,02,13,32,16.80
2010,10,02,13,33,16.90
2010,10,02,13,34,16.90
2010,10,02,13,35,17.00
2010,10,02,13,36,17.10
2010,10,02,13,37,17.20
2010,10,02,13,38,17.10
2010,10,02,13,39,17.10
2010,10,02,13,40,17.10
2010,10,02,13,41,17.10
2010,10,02,13,42,17.20
2010,10,02,13,43,17.20
2010,10,02,13,44,17.30
2010,10,02,13,45,17.30
2010,10,02,13,46,17.40
2010,10,02,13,47,17.50
2010,10,02,13,48,17.60
2010,10,02,13,49,17.60
2010,10,02,13,50,17.60
2010,10,02,13,51,17.60
2010,10,02,13,52,17.70
2010,10,02,13,53,17.80
2010,10,02,13,54,17.80
2010,10,02,13,55,17.80
2010,10,02,13,56,17.80
2010,10,02,13,57,17.80
2010,10,02,13,58,17.80
2010,10,02,13,59,17.80
2010,10,02,14,00,17.80
2010,10,02,14,01,17.70
2010,10,02,14,02,17.80
2010,10,02,14,03,17.80
2010,10,02,14,04,17.80
2010,10,02,14,05,17.80
2010,10,02,14,06,17.80
2010,10,02,14,07,17.80
2010,10,02,14,08,17.80
2010,10,02,14,09,17.80
2010,10,02,14,10,17.90
2010,10,02,14,11,18.00
2010,10,02,14,12,18.00
2010,10,02,14,13,17.90
2010,10,02,14,14,17.90
2010,10,02,14,15,17.90
2010,10,02,14,16,17.80
2010,10,02,14,17,17.80
2010,10,02,14,18,17.80
2010,10,02,14,19,17.70
2010,10,02,14,20,17.60
2010,10,02,14,21,17.60
2010,10,02,14,22,17.60
2010,10,02,14,23,17.70
2010,10,02,14,24,17.70
2010,10,02,14,25,17.80
2010,10,02,14,26,17.80
2010,10,02,14,27,17.90
2010,10,02,14,28,17.90
2010,10,02,14,29,18.00
2010,10,02,14,30,17.90
2010,10,02,14,31,17.80
2010,10,02,14,32,17.70
2010,10,02,14,33,17.70
2010,10,02,14,34,17.60
2010,10,02,14,35,17.60
2010,10,02,14,36,17.50
2010,10,02,14,37,17.50
2010,10,02,14,38,17.40
2010,10,02,14,39,17.40
2010,10,02,14,40,17.50
2010,10,02,14,41,17.50
2010,10,02,14,42,17.50
2010,10,02,14,43,17.50
2010,10,02,14,44,17.40
2010,10,02,14,45,17.30
2010,10,02,14,46,17.30
2010,10,02,14,47,17.30
2010,10,02,14,48,17.40
2010,10,02,14,49,17.40
2010,10,02,14,50,17.40
2010,10,02,14,51,17.40
2010,10,02,14,52,17.40
2010,10,02,14,53,17.50
2010,10,02,14,54,17.60
2010,10,02,14,55,17.70
2010,10,02,14,56,17.60
2010,10,02,14,57,17.60
2010,10,02,14,58,17.60
2010,10,02,14,59,17.60
2010,10,02,15,00,17.60
2010,10,02,15,01,17.60
2010,10,02,15,02,17.50
2010,10,02,15,03,17.50
2010,10,02,15,04,17.50
2010,10,02,15,05,17.40
2010,10,02,15,06,17.40
2010,10,02,15,07,17.30
2010,10,02,15,08,17.30
2010,10,02,15,09,17.40
2010,10,02,15,10,17.40
2010,10,02,15,11,17.40
2010,10,02,15,12,17.30
2010,10,02,15,13,17.30
2010,10,02,15,14,17.30
2010,10,02,15,15,17.30
2010,10,02,15,16,17.40
2010,10,02,15,17,17.50
2010,10,02,15,18,17.60
2010,10,02,15,19,17.70
2010,10,02,15,20,17.70
2010,10,02,15,21,17.80
2010,10,02,15,22,17.80
2010,10,02,15,23,17.80
2010,10,02,15,24,17.70
2010,10,02,15,25,17.50
2010,10,02,15,26,17.40
2010,10,02,15,27,17.40
2010,10,02,15,28,17.40
2010,10,02,15,29,17.40
2010,10,02,15,30,17.40
2010,10,02,15,31,17.50
2010,10,02,15,32,17.50
2010,10,02,15,33,17.40
2010,10,02,15,34,17.40
2010,10,02,15,35,17.40
2010,10,02,15,36,17.40
2010,10,02,15,37,17.40
2010,10,02,15,38,17.40
2010,10,02,15,39,17.40
2010,10,02,15,40,17.40
2010,10,02,15,41,17.40
2010,10,02,15,42,17.30
2010,10,02,15,43,17.30
2010,10,02,15,44,17.30
2010,10,02,15,45,17.30
2010,10,02,15,46,17.30
2010,10,02,15,47,17.40
2010,10,02,15,48,17.40
2010,10,02,15,49,17.50
2010,10,02,15,50,17.50
2010,10,02,15,51,17.60
2010,10,02,15,52,17.60
2010,10,02,15,53,17.60
2010,10,02,15,54,17.60
2010,10,02,15,55,17.60
2010,10,02,15,56,17.70
2010,10,02,15,57,17.60
2010,10,02,15,58,17.60
2010,10,02,15,59,17.60
2010,10,02,16,00,17.60
2010,10,02,16,01,17.60
2010,10,02,16,02,17.60
2010,10,02,16,03,17.60
2010,10,02,16,04,17.50
2010,10,02,16,05,17.50
2010,10,02,16,06,17.50
2010,10,02,16,07,17.50
2010,10,02,16,08,17.50
2010,10,02,16,09,17.60
2010,10,02,16,10,17.60
2010,10,02,16,11,17.60
2010,10,02,16,12,17.70
2010,10,02,16,13,17.70
2010,10,02,16,14,17.70
2010,10,02,16,15,17.70
2010,10,02,16,16,17.60
2010,10,02,16,17,17.60
2010,10,02,16,18,17.60
2010,10,02,16,19,17.50
2010,10,02,16,20,17.40
2010,10,02,16,21,17.40
2010,10,02,16,22,17.40
2010,10,02,16,23,17.40
2010,10,02,16,24,17.40
2010,10,02,16,25,17.40
2010,10,02,16,26,17.40
2010,10,02,16,27,17.50
2010,10,02,16,28,17.50
2010,10,02,16,29,17.60
2010,10,02,16,30,17.70
2010,10,02,16,31,17.70
2010,10,02,16,32,17.70
2010,10,02,16,33,17.70
2010,10,02,16,34,17.70
2010,10,02,16,35,17.70
2010,10,02,16,36,17.70
2010,10,02,16,37,17.60
2010,10,02,16,38,17.60
2010,10,02,16,39,17.60
2010,10,02,16,40,17.60
2010,10,02,16,41,17.60
2010,10,02,16,42,17.60
2010,10,02,16,43,17.60
2010,10,02,16,44,17.70
2010,10,02,16,45,17.80
2010,10,02,16,46,17.90
2010,10,02,16,47,17.90
2010,10,02,16,48,18.00
2010,10,02,16,49,17.90
2010,10,02,16,50,17.90
2010,10,02,16,51,17.90
2010,10,02,16,52,17.90
2010,10,02,16,53,17.90
2010,10,02,16,54,17.90
2010,10,02,16,55,17.90
2010,10,02,16,56,17.90
2010,10,02,16,57,18.00
2010,10,02,16,58,18.00
2010,10,02,16,59,18.10
2010,10,02,17,00,18.00
2010,10,02,17,01,18.10
2010,10,02,17,02,18.10
2010,10,02,17,03,18.10
2010,10,02,17,04,18.20
2010,10,02,17,05,18.20
2010,10,02,17,06,18.10
2010,10,02,17,07,18.10
2010,10,02,17,08,18.00
2010,10,02,17,09,17.90
2010,10,02,17,10,17.80
2010,10,02,17,11,17.80
2010,10,02,17,12,17.80
2010,10,02,17,13,17.80
2010,10,02,17,14,17.90
2010,10,02,17,15,17.90
2010,10,02,17,16,17.90
2010,10,02,17,17,17.90
2010,10,02,17,18,17.90
2010,10,02,17,19,17.90